[[{"header":{"parameterUnit":"m.s-1","parameterCategory":2,"la1":30.2992,"la2":30.254,"lo1":-89.0895,"lo2":-89.0443,"dy":0.0025,"dx":0.0025,"nx":19,"ny":19,"refTime":"2026-05-16T09:00:00:Z","depth":"0","parameterNumber":2,"parameterNumberName":"U-component_of_CURRENTS"},"data":[0,0,0,-0.2589,-0.2594,-0.2781,-0.2781,-0.287,-0.287,0,0,0,0,0,0,0,0,0,0,0,-0.2516,-0.2517,-0.2589,-0.2594,-0.2781,-0.2781,-0.287,-0.287,0,0,0,0,0,0,0,0,0,0,0,-0.2515,-0.2517,-0.2518,-0.2595,-0.278,-0.2781,-0.287,-0.2764,0,0,0,0,0,0,0,0,0,0,-0.26,-0.253,-0.2516,-0.2518,-0.2596,-0.278,-0.2781,-0.276,-0.277,-0.2746,0,-0.2784,0,-0.2836,-0.2874,-0.2874,0,0,0,-0.2584,-0.2522,-0.2603,-0.2519,-0.2598,-0.278,-0.2694,-0.2767,-0.2778,-0.2758,-0.2786,-0.2791,-0.2837,-0.2874,-0.2874,-0.2991,-0.2992,0,0,-0.2574,-0.2516,-0.2596,-0.2611,-0.2656,-0.2688,-0.27,-0.2775,-0.2768,-0.2787,-0.2794,-0.2838,-0.2874,-0.2875,-0.299,-0.2991,0,0,0,-0.2551,-0.2508,-0.259,-0.2605,-0.2655,-0.2693,-0.2707,-0.2765,-0.2802,-0.2796,-0.2839,-0.2875,-0.2875,-0.2989,-0.2991,-0.2899,0,0,0,-0.2544,-0.2497,-0.2585,-0.2547,-0.2655,-0.2727,-0.2694,-0.2796,-0.2808,-0.2839,-0.2875,-0.2876,-0.2988,-0.299,-0.29,-0.2845,0,0,0,-0.2505,-0.2492,-0.2524,-0.2545,-0.2636,-0.2728,-0.2768,-0.2801,-0.2834,-0.2874,-0.2876,-0.2988,-0.299,-0.29,-0.2847,-0.28,0,0,0,-0.2424,-0.2522,-0.2522,-0.2641,-0.2634,-0.2794,-0.2769,-0.2871,-0.2915,-0.2875,-0.2988,-0.299,-0.29,-0.2848,-0.2802,-0.2664,-0.2645,0,0,-0.252,-0.253,-0.261,-0.2618,-0.2736,-0.2767,-0.2863,-0.2903,-0.2932,-0.2948,-0.2953,-0.2899,-0.2847,-0.28,-0.2788,-0.2763,0,0,0,-0.2625,-0.2618,-0.2677,-0.2728,-0.2859,-0.2861,-0.294,-0.2942,-0.2958,-0.2972,-0.2969,-0.294,-0.2912,-0.2836,-0.2819,-0.2764,-0.3,-0.3,-0.3,-0.2513,-0.2611,-0.2669,-0.2757,-0.2842,-0.2927,-0.2926,-0.2931,-0.2995,-0.2994,-0.2917,-0.289,-0.2814,-0.2798,-0.2746,-0.2987,-0.2986,-0.2986,-0.2986,-0.2489,-0.251,-0.2563,-0.2649,-0.2708,-0.2768,-0.2842,-0.2864,-0.2854,-0.2915,-0.2892,-0.2809,-0.2772,-0.2724,-0.2981,-0.2982,-0.2983,-0.2983,-0.2983,-0.2371,-0.2398,-0.2441,-0.2507,-0.2524,-0.2644,-0.2646,-0.2714,-0.275,-0.2725,-0.2681,-0.2681,-0.259,-0.2739,-0.2738,-0.2738,-0.2737,-0.2737,-0.2737,-0.2242,-0.2294,-0.2299,-0.2364,-0.2393,-0.2449,-0.2549,-0.2565,-0.2567,-0.2576,-0.2576,-0.2584,-0.2815,-0.2768,-0.273,-0.2731,-0.2732,-0.2733,-0.2733,-0.2066,-0.2155,-0.214,-0.2169,-0.2217,-0.2128,-0.2351,-0.2317,-0.2368,-0.231,-0.2309,-0.2488,-0.2497,-0.2512,-0.2461,-0.2346,-0.2346,-0.2346,-0.2346,-0.1926,-0.1983,-0.1911,-0.1912,-0.1935,-0.195,-0.181,-0.1931,-0.2042,-0.2033,-0.2122,-0.2143,-0.2161,-0.2155,-0.2178,-0.2123,-0.1925,-0.1925,-0.1924,-0.1719,-0.1769,-0.1619,-0.1693,-0.1726,-0.1651,-0.1351,-0.1437,-0.1733,-0.1909,-0.2072,-0.2089,-0.2131,-0.2164,-0.217,-0.2207,-0.2125,0,0]},{"header":{"parameterUnit":"m.s-1","parameterCategory":2,"la1":30.2992,"la2":30.254,"lo1":-89.0895,"lo2":-89.0443,"dy":0.0025,"dx":0.0025,"nx":19,"ny":19,"refTime":"2026-05-16T09:00:00:Z","depth":"0","parameterNumber":3,"parameterNumberName":"V-component_of_CURRENTS"},"data":[0,0,0,0.0493,0.0495,0.0607,0.0608,0.0733,0.0733,0,0,0,0,0,0,0,0,0,0,0,0.0434,0.0433,0.0493,0.0495,0.0607,0.0608,0.0733,0.0733,0,0,0,0,0,0,0,0,0,0,0,0.0434,0.0434,0.0433,0.0496,0.0607,0.0608,0.0732,0.0657,0,0,0,0,0,0,0,0,0,0,0.0553,0.0493,0.0434,0.0433,0.0496,0.0607,0.0608,0.0654,0.0662,0.067,0,0.0658,0,0.0698,0.074,0.074,0,0,0,0.0516,0.0487,0.0515,0.0433,0.0497,0.0606,0.0562,0.0659,0.0668,0.068,0.066,0.0666,0.07,0.074,0.0741,0.0713,0.0712,0,0,0.051,0.0465,0.0509,0.052,0.0487,0.0559,0.0566,0.0665,0.0657,0.066,0.0669,0.0702,0.0741,0.0741,0.0714,0.0713,0,0,0,0.0478,0.046,0.0488,0.0514,0.0535,0.0561,0.057,0.0653,0.066,0.0671,0.0703,0.0741,0.0742,0.0715,0.0713,0.0578,0,0,0,0.0475,0.0441,0.0484,0.0461,0.0532,0.0599,0.0555,0.0653,0.0666,0.0703,0.0741,0.0743,0.0716,0.0714,0.0585,0.0456,0,0,0,0.0436,0.0438,0.0438,0.0458,0.05,0.0598,0.0613,0.0657,0.0685,0.074,0.0743,0.0717,0.0714,0.059,0.0467,0.045,0,0,0,0.0407,0.0332,0.0436,0.0366,0.0498,0.05,0.0613,0.063,0.0661,0.0742,0.0716,0.0713,0.0592,0.0474,0.0456,0.0569,0.0551,0,0,0.0287,0.0317,0.0275,0.037,0.0304,0.0488,0.0459,0.0553,0.0632,0.0689,0.0689,0.0583,0.0468,0.0451,0.0434,0.042,0,0,0,0.022,0.0168,0.0171,0.0164,0.0234,0.0294,0.0431,0.0488,0.0543,0.0639,0.0573,0.0503,0.0498,0.0579,0.0567,0.0825,0.0703,0.0703,0.0703,0.0,0.0031,-0.0061,-0.0016,0.0013,0.0159,0.0199,0.0302,0.0434,0.043,0.0389,0.0264,0.0348,0.0341,0.0604,0.0422,0.0422,0.0421,0.0421,-0.0216,-0.0255,-0.0236,-0.0313,-0.0206,-0.0183,-0.0022,0.0082,0.0143,0.0256,0.0263,0.0425,0.032,0.0606,0.0412,0.0414,0.0415,0.0416,0.0416,-0.0323,-0.034,-0.0398,-0.0482,-0.0501,-0.0364,-0.0328,-0.02,-0.0048,-0.006,0.0134,0.0139,0.0399,0.0002,0.0002,0.0001,0.0,-0.0,-0.0,-0.0367,-0.0438,-0.0536,-0.0631,-0.066,-0.0637,-0.0488,-0.0397,-0.0207,-0.0061,-0.0056,0.0382,0.0137,0.0163,-0.0011,-0.0009,-0.0008,-0.0007,-0.0006,-0.0442,-0.0461,-0.0616,-0.0687,-0.0767,-0.0704,-0.0606,-0.0352,-0.028,-0.0175,0.0302,-0.0013,0.0044,0.0058,0.0082,-0.0103,-0.0103,-0.0102,-0.0102,-0.0447,-0.0485,-0.0632,-0.0726,-0.0784,-0.071,-0.0473,-0.0228,0.0146,0.0356,0.0405,0.0574,0.0566,0.0664,0.0664,0.0706,0.0683,0.0685,0.0686,-0.0471,-0.0522,-0.0588,-0.0694,-0.0756,-0.0646,-0.0341,0.0071,0.0544,0.0741,0.0732,0.0699,0.0973,0.094,0.1119,0.1099,0.1176,0,0]}],[{"header":{"parameterUnit":"m.s-1","parameterCategory":2,"la1":30.2992,"la2":30.254,"lo1":-89.0895,"lo2":-89.0443,"dy":0.0025,"dx":0.0025,"nx":19,"ny":19,"refTime":"2026-05-16T09:00:00:Z","depth":"2","parameterNumber":2,"parameterNumberName":"U-component_of_CURRENTS"},"data":[0,0,0,-0.2096,-0.2101,-0.24,-0.2401,-0.2857,-0.2861,0,0,0,0,0,0,0,0,0,0,0,-0.2002,-0.2003,-0.2095,-0.2101,-0.2399,-0.2401,-0.2857,-0.2861,0,0,0,0,0,0,0,0,0,0,0,-0.2001,-0.2003,-0.2005,-0.2102,-0.2399,-0.2401,-0.2856,-0.2623,0,0,0,0,0,0,0,0,0,0,-0.2328,-0.2212,-0.2003,-0.2005,-0.2103,-0.2399,-0.2402,-0.2611,-0.2638,-0.2729,0,-0.2756,0,-0.2799,-0.2889,-0.2891,0,0,0,-0.2146,-0.219,-0.2264,-0.2005,-0.2105,-0.2398,-0.2278,-0.2626,-0.2655,-0.2764,-0.2763,-0.2779,-0.2806,-0.2892,-0.2894,-0.3091,-0.309,0,0,-0.213,-0.2076,-0.2243,-0.2281,-0.2161,-0.2268,-0.2286,-0.2643,-0.267,-0.2764,-0.279,-0.2814,-0.2895,-0.2898,-0.3092,-0.3091,0,0,0,-0.2052,-0.2064,-0.2129,-0.2263,-0.23,-0.2275,-0.2297,-0.2655,-0.2674,-0.2795,-0.2819,-0.2897,-0.2902,-0.3093,-0.3092,-0.2936,0,0,0,-0.2044,-0.2016,-0.2121,-0.2095,-0.2292,-0.247,-0.23,-0.265,-0.2691,-0.2817,-0.2897,-0.2906,-0.3094,-0.3092,-0.2943,-0.294,0,0,0,-0.1992,-0.2011,-0.2035,-0.2091,-0.2198,-0.2464,-0.2507,-0.266,-0.2705,-0.2891,-0.2907,-0.3095,-0.3093,-0.2949,-0.2949,-0.2934,0,0,0,-0.1942,-0.197,-0.2034,-0.2085,-0.2194,-0.2365,-0.2505,-0.2731,-0.2897,-0.2899,-0.3094,-0.3092,-0.2951,-0.2954,-0.2938,-0.2812,-0.2783,0,0,-0.1942,-0.1969,-0.1999,-0.2063,-0.2169,-0.2329,-0.2419,-0.2728,-0.2869,-0.2994,-0.2999,-0.2941,-0.2949,-0.2935,-0.2677,-0.2652,0,0,0,-0.1977,-0.2017,-0.2053,-0.2141,-0.2259,-0.2355,-0.2598,-0.2671,-0.2831,-0.2941,-0.2937,-0.2949,-0.2944,-0.2876,-0.2855,-0.3081,-0.3081,-0.3081,-0.3081,-0.1963,-0.2025,-0.2093,-0.2178,-0.2269,-0.2428,-0.2499,-0.2636,-0.2764,-0.2785,-0.2815,-0.2699,-0.2618,-0.2603,-0.2775,-0.2775,-0.2774,-0.2774,-0.2773,-0.1999,-0.202,-0.2131,-0.221,-0.2275,-0.2365,-0.2456,-0.2519,-0.2566,-0.2658,-0.2659,-0.2707,-0.2571,-0.2761,-0.2763,-0.2765,-0.2766,-0.2767,-0.2768,-0.195,-0.196,-0.2047,-0.2163,-0.2256,-0.233,-0.2392,-0.2447,-0.2501,-0.2489,-0.2495,-0.2496,-0.266,-0.2505,-0.2504,-0.2504,-0.2504,-0.2504,-0.2504,-0.1823,-0.1917,-0.1948,-0.2103,-0.2158,-0.2254,-0.2371,-0.2393,-0.2383,-0.237,-0.2369,-0.2611,-0.262,-0.2648,-0.2502,-0.2502,-0.2502,-0.2502,-0.2503,-0.1711,-0.1743,-0.179,-0.1848,-0.2001,-0.2033,-0.2219,-0.2225,-0.2258,-0.2202,-0.2296,-0.2302,-0.2369,-0.2385,-0.2409,-0.2211,-0.2211,-0.2211,-0.2211,-0.1586,-0.1623,-0.1629,-0.1674,-0.177,-0.1905,-0.1877,-0.1928,-0.199,-0.1985,-0.1995,-0.1976,-0.1992,-0.2042,-0.2066,-0.2086,-0.1804,-0.1803,-0.1803,-0.1504,-0.1522,-0.147,-0.1537,-0.1644,-0.1719,-0.1634,-0.1551,-0.1592,-0.1791,-0.1967,-0.2175,-0.2175,-0.2189,-0.2296,-0.2322,-0.2367,0,0]},{"header":{"parameterUnit":"m.s-1","parameterCategory":2,"la1":30.2992,"la2":30.254,"lo1":-89.0895,"lo2":-89.0443,"dy":0.0025,"dx":0.0025,"nx":19,"ny":19,"refTime":"2026-05-16T09:00:00:Z","depth":"2","parameterNumber":3,"parameterNumberName":"V-component_of_CURRENTS"},"data":[0,0,0,-0.0366,-0.0365,-0.0272,-0.0271,0.0079,0.0082,0,0,0,0,0,0,0,0,0,0,0,-0.0391,-0.0391,-0.0366,-0.0365,-0.0272,-0.0271,0.0078,0.0082,0,0,0,0,0,0,0,0,0,0,0,-0.0391,-0.0391,-0.0391,-0.0365,-0.0272,-0.0271,0.0077,-0.0044,0,0,0,0,0,0,0,0,0,0,-0.016,-0.023,-0.0391,-0.0391,-0.0365,-0.0273,-0.0271,-0.0051,-0.0036,0.0093,0,0.0089,0,0.0085,0.0108,0.0109,0,0,0,-0.0336,-0.0244,-0.022,-0.0391,-0.0364,-0.0273,-0.0306,-0.0044,-0.0026,0.0115,0.0093,0.0105,0.0091,0.0111,0.0112,0.0431,0.0431,0,0,-0.0341,-0.0358,-0.0234,-0.021,-0.0357,-0.0309,-0.0303,-0.0036,-0.0017,0.0095,0.0112,0.0097,0.0113,0.0116,0.043,0.0431,0,0,0,-0.0376,-0.0362,-0.0349,-0.0222,-0.0229,-0.0307,-0.03,-0.0029,-0.0026,0.0115,0.0101,0.0115,0.012,0.0429,0.043,0.0178,0,0,0,-0.0377,-0.0384,-0.0352,-0.0358,-0.0237,-0.0161,-0.03,-0.0045,-0.0016,0.0099,0.0116,0.0124,0.0429,0.043,0.0183,0.0147,0,0,0,-0.0392,-0.0385,-0.0382,-0.036,-0.0335,-0.0167,-0.0149,-0.004,-0.0024,0.011,0.0125,0.0428,0.043,0.0188,0.0154,0.0169,0,0,0,-0.04,-0.0431,-0.0383,-0.0407,-0.0336,-0.0291,-0.0151,-0.0047,0.006,0.0117,0.0429,0.043,0.019,0.0159,0.0172,0.0252,0.0242,0,0,-0.0454,-0.0438,-0.0453,-0.0409,-0.0421,-0.0301,-0.0277,-0.0055,0.0131,0.0362,0.0368,0.0182,0.0155,0.017,0.0331,0.0317,0,0,0,-0.048,-0.0478,-0.0482,-0.0461,-0.0417,-0.0363,-0.0184,-0.0086,0.0119,0.0193,0.0281,0.0277,0.0291,0.035,0.0341,0.0437,0.0436,0.0436,0.0436,-0.0543,-0.0519,-0.0543,-0.0509,-0.047,-0.0355,-0.0292,-0.0092,0.0048,0.0121,0.0138,0.0085,0.0143,0.0138,0.0185,0.0184,0.0183,0.0182,0.0182,-0.0612,-0.0635,-0.057,-0.0588,-0.0528,-0.0471,-0.032,-0.0234,-0.0083,0.003,0.0054,0.0168,0.0113,0.0164,0.0167,0.017,0.0171,0.0173,0.0174,-0.067,-0.0688,-0.0668,-0.0665,-0.0626,-0.0551,-0.0479,-0.0369,-0.0212,-0.0214,-0.0017,-0.0011,-0.0057,-0.0186,-0.0187,-0.0187,-0.0187,-0.0187,-0.0187,-0.0769,-0.0749,-0.0796,-0.0763,-0.0768,-0.0721,-0.0562,-0.0466,-0.0292,-0.0185,-0.0182,-0.0035,-0.0023,-0.0067,-0.0189,-0.0189,-0.0189,-0.0188,-0.0188,-0.0879,-0.0872,-0.0947,-0.0968,-0.0965,-0.0949,-0.0748,-0.0474,-0.0335,-0.0229,-0.0138,-0.0138,-0.0011,0.0002,-0.0034,-0.014,-0.014,-0.014,-0.014,-0.0967,-0.0966,-0.1089,-0.1156,-0.1175,-0.1071,-0.0888,-0.0519,-0.0209,-0.0071,-0.0074,-0.0034,-0.0036,0.0096,0.0106,0.0075,-0.0003,-0.0003,-0.0003,-0.1044,-0.1078,-0.1186,-0.125,-0.1283,-0.1199,-0.1019,-0.0539,-0.0066,-0.0001,-0.008,-0.0125,-0.0072,-0.0075,0.0133,0.0146,0.0099,0,0]}],[{"header":{"parameterUnit":"m.s-1","parameterCategory":2,"la1":30.2992,"la2":30.254,"lo1":-89.0895,"lo2":-89.0443,"dy":0.0025,"dx":0.0025,"nx":19,"ny":19,"refTime":"2026-05-16T09:00:00:Z","depth":"4","parameterNumber":2,"parameterNumberName":"U-component_of_CURRENTS"},"data":[0,0,0,-0.1523,-0.1527,-0.1697,-0.1697,-0.1795,-0.1795,0,0,0,0,0,0,0,0,0,0,0,-0.1466,-0.1467,-0.1523,-0.1527,-0.1697,-0.1697,-0.1795,-0.1795,0,0,0,0,0,0,0,0,0,0,0,-0.1465,-0.1467,-0.1468,-0.1528,-0.1697,-0.1698,-0.1794,-0.1696,0,0,0,0,0,0,0,0,0,0,-0.1546,-0.1506,-0.1466,-0.1468,-0.1529,-0.1696,-0.1698,-0.1693,-0.1702,-0.1684,0,-0.1719,0,-0.1757,-0.1799,-0.1799,0,0,0,-0.1528,-0.1498,-0.1549,-0.1468,-0.1531,-0.1696,-0.162,-0.1699,-0.171,-0.1695,-0.1721,-0.1726,-0.1759,-0.1799,-0.18,-0.1812,-0.1811,0,0,-0.1518,-0.1489,-0.1542,-0.1556,-0.1584,-0.1615,-0.1626,-0.1707,-0.1716,-0.1721,-0.1729,-0.176,-0.18,-0.18,-0.1812,-0.1812,0,0,0,-0.1491,-0.1482,-0.1533,-0.155,-0.159,-0.162,-0.1632,-0.1712,-0.1732,-0.173,-0.1761,-0.18,-0.1801,-0.1812,-0.1812,-0.1898,0,0,0,-0.1486,-0.1467,-0.1529,-0.1512,-0.1589,-0.1669,-0.1635,-0.1726,-0.1737,-0.1761,-0.18,-0.1801,-0.1813,-0.1812,-0.1896,-0.1956,0,0,0,-0.1456,-0.1463,-0.1487,-0.151,-0.1584,-0.1669,-0.1693,-0.173,-0.1755,-0.1799,-0.1801,-0.1813,-0.1812,-0.1895,-0.1952,-0.1975,0,0,0,-0.1413,-0.145,-0.1487,-0.154,-0.1583,-0.167,-0.1694,-0.1767,-0.1808,-0.18,-0.1813,-0.1812,-0.1894,-0.1949,-0.1972,-0.173,0,0,0,-0.1431,-0.1452,-0.1484,-0.1521,-0.1614,-0.1646,-0.1725,-0.1794,-0.1782,-0.1778,-0.178,-0.1897,-0.1952,-0.1974,-0.169,0,0,0,0,-0.1471,-0.1501,-0.1533,-0.1603,-0.1664,-0.1745,-0.179,-0.1806,-0.1844,-0.1804,-0.1858,-0.189,-0.1902,-0.175,-0.1809,-0.1809,-0.1809,-0.1809,-0.1809,-0.1443,-0.1505,-0.1581,-0.1666,-0.1722,-0.1809,-0.1871,-0.189,-0.186,-0.1876,-0.1931,-0.197,-0.1808,-0.1883,-0.1884,-0.1884,-0.1884,-0.1885,-0.1885,-0.1482,-0.1521,-0.1632,-0.1733,-0.182,-0.1887,-0.1959,-0.1971,-0.2012,-0.1964,-0.1971,-0.1814,-0.1892,-0.1891,-0.189,-0.1889,-0.1888,-0.1888,-0.1887,-0.1438,-0.147,-0.1573,-0.172,-0.1857,-0.1948,-0.2036,-0.2085,-0.2095,-0.2133,-0.1924,-0.2023,-0.2049,-0.2112,-0.2113,-0.2113,-0.2113,-0.2114,-0.2114,-0.1333,-0.1442,-0.1512,-0.1699,-0.1782,-0.1913,-0.2068,-0.2096,-0.2131,-0.2,-0.2145,-0.2046,-0.2039,-0.206,-0.212,-0.2119,-0.2118,-0.2117,-0.2117,-0.1248,-0.1292,-0.1374,-0.1461,-0.1657,-0.1745,-0.1955,-0.1981,-0.1988,-0.1923,-0.1914,-0.1922,-0.1871,-0.1868,-0.1882,-0.1892,-0.1889,-0.1886,0,-0.1144,-0.1187,-0.1242,-0.1314,-0.1408,-0.1614,-0.1615,-0.1711,-0.1754,-0.1686,-0.1943,-0.1929,-0.1934,-0.1872,-0.1865,-0.1876,0,0,0,-0.1076,-0.1103,-0.1093,-0.1189,-0.1279,-0.1407,-0.1603,-0.1564,-0.1771,-0.1726,-0.1814,-0.1833,-0.2014,-0.2136,-0.2078,-0.2069,-0.21,0,0]},{"header":{"parameterUnit":"m.s-1","parameterCategory":2,"la1":30.2992,"la2":30.254,"lo1":-89.0895,"lo2":-89.0443,"dy":0.0025,"dx":0.0025,"nx":19,"ny":19,"refTime":"2026-05-16T09:00:00:Z","depth":"4","parameterNumber":3,"parameterNumberName":"V-component_of_CURRENTS"},"data":[0,0,0,-0.0317,-0.0317,-0.0308,-0.0308,-0.0292,-0.0292,0,0,0,0,0,0,0,0,0,0,0,-0.0319,-0.0319,-0.0317,-0.0317,-0.0308,-0.0308,-0.0292,-0.0292,0,0,0,0,0,0,0,0,0,0,0,-0.0319,-0.0319,-0.0319,-0.0317,-0.0309,-0.0308,-0.0292,-0.0298,0,0,0,0,0,0,0,0,0,0,-0.0306,-0.0312,-0.0319,-0.0319,-0.0317,-0.0309,-0.0308,-0.0298,-0.0298,-0.0297,0,-0.03,0,-0.03,-0.0291,-0.0291,0,0,0,-0.0309,-0.0312,-0.0312,-0.0319,-0.0317,-0.0309,-0.031,-0.0298,-0.0297,-0.0296,-0.03,-0.03,-0.03,-0.0291,-0.0291,-0.0331,-0.0332,0,0,-0.031,-0.0314,-0.0312,-0.0312,-0.0321,-0.0311,-0.031,-0.0297,-0.0299,-0.03,-0.0299,-0.0299,-0.0291,-0.0291,-0.0331,-0.0331,0,0,0,-0.0317,-0.0315,-0.0314,-0.0312,-0.0313,-0.0311,-0.031,-0.0299,-0.0299,-0.0299,-0.0299,-0.0291,-0.0291,-0.033,-0.0331,-0.03,0,0,0,-0.0316,-0.0319,-0.0314,-0.0316,-0.0314,-0.0307,-0.0312,-0.03,-0.0299,-0.0299,-0.0291,-0.0291,-0.033,-0.0331,-0.03,-0.0288,0,0,0,-0.0318,-0.0319,-0.032,-0.0317,-0.0317,-0.0307,-0.0307,-0.03,-0.0299,-0.0291,-0.0291,-0.0329,-0.033,-0.0299,-0.0288,-0.0248,0,0,0,-0.0319,-0.0351,-0.0321,-0.0353,-0.0317,-0.0346,-0.0307,-0.0325,-0.0325,-0.0291,-0.033,-0.0331,-0.0299,-0.0288,-0.0249,-0.0282,0,0,0,-0.0366,-0.0356,-0.0376,-0.035,-0.0386,-0.0347,-0.0362,-0.0343,-0.034,-0.0331,-0.0331,-0.03,-0.0288,-0.0248,-0.0353,0,0,0,0,-0.0396,-0.0405,-0.0415,-0.0419,-0.0426,-0.0399,-0.0385,-0.0357,-0.0335,-0.0346,-0.0333,-0.0327,-0.0302,-0.0326,-0.0337,-0.0336,-0.0336,-0.0336,-0.0336,-0.0448,-0.0443,-0.0475,-0.0468,-0.0471,-0.0437,-0.0398,-0.0358,-0.0365,-0.0352,-0.0326,-0.031,-0.034,-0.0354,-0.0353,-0.0353,-0.0353,-0.0353,-0.0353,-0.0509,-0.0528,-0.0498,-0.0531,-0.0492,-0.0489,-0.0401,-0.0367,-0.0299,-0.0323,-0.0299,-0.0324,-0.0351,-0.0351,-0.0352,-0.0352,-0.0352,-0.0352,-0.0352,-0.0544,-0.0556,-0.0564,-0.0587,-0.0565,-0.0523,-0.0459,-0.0381,-0.0291,-0.0252,-0.0283,-0.0286,-0.0258,-0.025,-0.025,-0.0249,-0.0249,-0.0249,-0.0249,-0.059,-0.0596,-0.0652,-0.0655,-0.0673,-0.064,-0.0508,-0.0422,-0.0314,-0.026,-0.0257,-0.0275,-0.0278,-0.0254,-0.0246,-0.0246,-0.0247,-0.0247,-0.0247,-0.0656,-0.0667,-0.0754,-0.0793,-0.0822,-0.0781,-0.065,-0.0427,-0.0332,-0.0234,-0.0247,-0.0248,-0.0254,-0.0258,-0.0233,-0.0218,-0.0218,-0.0218,0,-0.0705,-0.0715,-0.0846,-0.0928,-0.0956,-0.0871,-0.0717,-0.0562,-0.0379,-0.0398,-0.0376,-0.0405,-0.04,-0.0426,-0.0428,-0.041,0,0,0,-0.0753,-0.0789,-0.0891,-0.0976,-0.1018,-0.0827,-0.0675,-0.0592,-0.0413,-0.0266,-0.0227,-0.0225,-0.0284,-0.0236,-0.0248,-0.0252,-0.0213,0,0]}]]